SILO ALERT LOG


Silo ID Alert Type Alert Message Silo Type Points Depth (mm) Strength Temperature (°C) Humidity (%) Height (mm) Volume (㎥) Weight (t) Flag Time
DJSAD02 Humidity 습도센서 측정값이 80% 초과 380 1140 4297 3.2 87 7639 316.246 199.931 11 2024-01-11 14:39:39.000
DJSAD08 Humidity 습도센서 측정값이 80% 초과 17 1704 3866 13.4 81.5 5875 836.079 528.569 29 2024-01-11 14:39:39.000
DJSAD01 Humidity 습도센서 측정값이 80% 초과 442 1561 7401 2.8 87.1 7218 298.812 188.909 0 2024-01-11 14:39:39.000
DJSAD03 Humidity 습도센서 측정값이 80% 초과 278 1228 5297 4.2 84.5 7551 312.588 197.618 29 2024-01-11 14:39:38.000
DJHNR01 Humidity 습도센서 측정값이 80% 초과 호퍼 469 3998 3997 8.5 99.9 11381 495.79 313.438 13 2024-01-11 14:39:33.000
DJSSD01 Humidity 습도센서 측정값이 80% 초과 793 2567 4650 6.4 83.2 5512 767.178 485.01 0 2024-01-11 14:39:33.000
DJSSD04 Temperature 온도센서 상태 이상 0 8200 0 -999 -999 -120 -16.702 0 31 2024-01-11 14:39:33.000
DJSSD05 Temperature 온도센서 측정값이 0도 미만 838 2552 4879 -45.4 43.6 5527 769.31 486.358 0 2024-01-11 14:39:32.000
DJDJD04 Humidity 습도센서 측정값이 80% 초과 277 4211 4384 5.3 81.3 3468 420.258 265.687 11 2024-01-11 14:39:32.000
DJSAD12 Humidity 습도센서 측정값이 80% 초과 0 7700 0 5.1 87.4 -120 -17.075 0 31 2024-01-11 14:39:32.000
DJSSD09 Temperature 온도센서 측정값이 0도 미만 121 2952 2693 -45.4 0 4727 658.038 416.012 11 2024-01-11 14:39:31.000
DJSAD18 Humidity 습도센서 측정값이 80% 초과 119 1445 5810 5.7 80.8 6134 610.904 386.213 11 2024-01-11 14:39:30.000
DJHNR03 Temperature 온도센서 상태 이상 호퍼 0 15500 0 -999 -999 -119 0 0 31 2024-01-11 14:39:24.000
DJSSD12 Temperature 온도센서 상태 이상 호퍼 0 11350 0 -999 -999 -120 0 0 31 2024-01-11 14:39:24.000
DJHNR12 Humidity 습도센서 측정값이 80% 초과 호퍼 0 10500 0 6 82.8 -120 0 0 31 2024-01-11 14:39:23.000
DJSAD01 Humidity 습도센서 측정값이 80% 초과 466 1455 7345 2.4 87.4 7324 303.201 191.684 0 2024-01-11 13:39:40.000
DJSAD03 Humidity 습도센서 측정값이 80% 초과 431 1267 5647 3.7 84.5 7512 310.99 196.608 0 2024-01-11 13:39:40.000
DJSAD05 Humidity 습도센서 측정값이 80% 초과 489 891 15291 3 80.2 7888 326.562 206.452 11 2024-01-11 13:39:39.000
DJSAD02 Humidity 습도센서 측정값이 80% 초과 389 1137 4290 2.8 87.1 7642 316.369 200.008 11 2024-01-11 13:39:38.000
DJSAD08 Humidity 습도센서 측정값이 80% 초과 8 9379 3776 13.8 81.1 -1799 -256.113 0 12 2024-01-11 13:39:38.000

[첫 페이지] [9994] [9995] [9996] [9997] 9998 [9999] [10000] [10001] [10002] [마지막 페이지]